Weather reports worldwide

Advertisment
Decimomannu, Italy (16546): temperature & dewpoint: 15.01.2021 05:00:00 - 21.01.2021 05:00:00 (CET)Decimomannu, Italy (16546): wind speed: 15.01.2021 05:00:00 - 21.01.2021 05:00:00 (CET)Decimomannu, Italy (16546): wind direction: 15.01.2021 05:00:00 - 21.01.2021 05:00:00 (CET)Decimomannu, Italy (16546): reduced air pressure: 15.01.2021 05:00:00 - 21.01.2021 05:00:00 (CET)Decimomannu, Italy (16546): visibility: 15.01.2021 05:00:00 - 21.01.2021 05:00:00 (CET)
Date & Time tt [°C] td [°C] ff [km/h] ff [kn] dd ppp [hPa] vv [km]
21.01.2021 05:00:00 - - - - - - -
21.01.2021 04:00:00 6,6 3,7 8 4 E 1015,9 5
21.01.2021 03:00:00 - - - - - - -
21.01.2021 02:00:00 - - - - - - -
21.01.2021 01:00:00 8,8 6,4 4 2 W 1017,0 10
21.01.2021 00:00:00 - - - - - - -
20.01.2021 23:00:00 - - - - - - -
20.01.2021 22:00:00 9,2 6,6 4 2 SE 1017,6 12
20.01.2021 21:00:00 - - - - - - -
20.01.2021 20:00:00 10,0 8,0 5 3 SE - 10
20.01.2021 19:00:00 11,0 8,0 11 6 ESE 1018,3 20
20.01.2021 18:00:00 11,0 9,0 13 7 SE - 10
20.01.2021 17:00:00 14,0 12,0 15 8 SE - 10
20.01.2021 16:00:00 15,0 12,0 21 11 SE 1018,5 20
20.01.2021 15:00:00 16,0 12,0 21 11 SSE - 10
20.01.2021 14:00:00 16,0 9,0 18 10 SE - 10
20.01.2021 13:00:00 16,2 10,3 15 8 SSE 1020,1 20
20.01.2021 12:00:00 14,0 10,0 11 6 SSE - 10
20.01.2021 11:00:00 11,0 8,0 0 0 N - 10
20.01.2021 10:00:00 5,6 2,6 4 2 W 1022,9 12
20.01.2021 09:00:00 3,0 0,0 4 2 W - 10
20.01.2021 08:00:00 2,0 -1,0 4 2 N - 10
20.01.2021 07:00:00 2,2 -0,5 4 2 N 1024,0 12
20.01.2021 06:00:00 2,0 -1,0 5 3 WNW - 10
20.01.2021 05:00:00 3,0 0,0 8 4 NNW - 10
20.01.2021 04:00:00 2,6 0,2 4 2 WNW 1024,8 10
20.01.2021 03:00:00 3,0 0,0 4 2 NW - 10
20.01.2021 02:00:00 3,0 1,0 8 4 NE - 10
20.01.2021 01:00:00 3,0 0,7 8 4 N 1025,9 10
20.01.2021 00:00:00 4,0 2,0 5 3 ENE - 10
19.01.2021 23:00:00 5,0 3,0 8 4 ENE - 10
19.01.2021 22:00:00 4,8 3,0 2 1 WNW 1026,0 15
19.01.2021 21:00:00 6,0 4,0 8 4 E - 10
19.01.2021 20:00:00 8,0 6,0 2 1 - - 10
19.01.2021 19:00:00 8,2 6,7 4 2 SSE 1025,9 15
19.01.2021 18:00:00 10,0 8,0 4 2 NW - 10
19.01.2021 17:00:00 13,0 9,0 5 3 N - 10
19.01.2021 16:00:00 13,2 8,3 11 6 WNW 1025,9 15
19.01.2021 15:00:00 13,0 7,0 9 5 NNW - 10
19.01.2021 14:00:00 14,0 7,0 8 4 WNW - 10
19.01.2021 13:00:00 15,4 7,7 9 5 NNW 1026,5 20
19.01.2021 12:00:00 13,0 6,0 5 3 NW - 10
19.01.2021 11:00:00 13,0 9,0 4 2 SW - 10
19.01.2021 10:00:00 9,2 6,5 4 2 N 1027,1 12
19.01.2021 09:00:00 6,0 3,0 2 1 - - 10
19.01.2021 08:00:00 5,0 3,0 8 4 NE - 10
19.01.2021 07:00:00 4,8 2,3 8 4 NE 1026,8 14
19.01.2021 06:00:00 5,0 2,0 5 3 NE - 10
19.01.2021 05:00:00 4,0 2,0 5 3 E - 10
19.01.2021 04:00:00 4,2 1,9 2 1 ESE 1026,0 12
19.01.2021 03:00:00 5,0 3,0 9 5 NNE - 10
19.01.2021 02:00:00 4,0 2,0 5 3 NW - 10
19.01.2021 01:00:00 5,0 3,0 5 3 NNW 1026,1 12
19.01.2021 00:00:00 6,0 5,0 4 2 NW - 10
18.01.2021 23:00:00 7,0 5,0 5 3 WSW - 10
18.01.2021 22:00:00 8,0 6,9 4 2 NW 1025,8 12
18.01.2021 21:00:00 8,0 7,0 2 1 WSW - 10
18.01.2021 20:00:00 10,0 8,0 4 2 ESE - 10
18.01.2021 19:00:00 10,6 8,2 2 1 NNE 1024,9 16
18.01.2021 18:00:00 11,0 9,0 5 3 E - 10
18.01.2021 17:00:00 13,0 8,0 5 3 SE - 10
18.01.2021 16:00:00 14,2 5,5 9 5 SE 1023,5 20
18.01.2021 15:00:00 15,0 4,0 4 2 NE - 10
18.01.2021 14:00:00 16,0 5,0 5 3 S - 10
18.01.2021 13:00:00 14,8 5,6 4 2 N 1023,6 20
18.01.2021 12:00:00 13,0 5,0 4 2 N - 10
18.01.2021 11:00:00 12,0 6,0 9 5 NNW - 10
18.01.2021 10:00:00 8,6 4,4 9 5 N 1023,2 20
18.01.2021 09:00:00 6,0 3,0 9 5 NNE - 10
18.01.2021 08:00:00 4,0 3,0 8 4 NNE - 10
18.01.2021 07:00:00 5,8 3,0 8 4 N 1020,8 14
18.01.2021 06:00:00 6,0 5,0 11 6 N - 10
18.01.2021 05:00:00 9,0 8,0 9 5 N - 10
18.01.2021 04:00:00 9,0 7,8 15 8 NW 1017,9 15
18.01.2021 03:00:00 10,0 6,0 26 14 WNW - 10
18.01.2021 02:00:00 10,0 6,0 21 11 NW - 10
18.01.2021 01:00:00 10,8 6,0 18 10 NW 1016,8 15
18.01.2021 00:00:00 11,0 4,0 34 18 S - 10
17.01.2021 23:00:00 12,0 9,0 41 22 WNW - 10
17.01.2021 22:00:00 12,0 7,9 26 14 NW 1015,8 14
17.01.2021 21:00:00 12,0 8,0 26 14 NW - 10
17.01.2021 20:00:00 13,0 9,0 28 15 WNW - 10
17.01.2021 19:00:00 13,2 9,5 34 18 W 1015,6 14
17.01.2021 18:00:00 14,0 10,0 31 17 W - 10
17.01.2021 17:00:00 14,0 10,0 35 19 WNW - 10
17.01.2021 16:00:00 13,0 9,6 41 22 WNW 1015,7 15
17.01.2021 15:00:00 13,0 9,0 41 22 WNW - 10
17.01.2021 14:00:00 14,0 9,0 34 18 WNW - 10
17.01.2021 13:00:00 14,0 10,0 37 20 WNW 1016,6 15
17.01.2021 12:00:00 15,0 8,0 31 17 W - 10
17.01.2021 11:00:00 13,0 8,0 28 15 W - 10
17.01.2021 10:00:00 11,4 6,9 24 13 W 1018,8 14
17.01.2021 09:00:00 8,0 5,0 11 6 NW - 10
17.01.2021 08:00:00 5,0 2,0 8 4 NNE - 10
17.01.2021 07:00:00 3,0 0,6 8 4 NE 1020,4 10
17.01.2021 06:00:00 3,0 0,0 4 2 N - 8
17.01.2021 05:00:00 3,0 0,0 8 4 NNW - 10
17.01.2021 04:00:00 3,0 0,6 4 2 NNE 1021,0 20
17.01.2021 03:00:00 5,0 3,0 5 3 NNE - 10
17.01.2021 02:00:00 5,0 3,0 2 1 NE - 10
17.01.2021 01:00:00 5,4 3,6 5 3 ENE 1021,9 12
17.01.2021 00:00:00 5,0 4,0 5 3 NNE - 10
16.01.2021 23:00:00 5,0 3,0 4 2 ESE - 10
16.01.2021 22:00:00 5,0 3,3 8 4 NE 1021,9 20
16.01.2021 21:00:00 7,0 4,0 8 4 WNW - 10
16.01.2021 20:00:00 7,0 4,0 4 2 WNW - 10
16.01.2021 19:00:00 8,6 4,0 15 8 NW 1020,2 20
16.01.2021 18:00:00 9,0 4,0 15 8 NW - 10
16.01.2021 17:00:00 11,0 3,0 16 9 NW - 10
16.01.2021 16:00:00 12,2 3,2 26 14 NW 1017,7 20
16.01.2021 15:00:00 13,0 3,0 24 13 NW - 10
16.01.2021 14:00:00 13,0 6,0 15 8 NW - 10
16.01.2021 13:00:00 12,0 6,1 15 8 WNW 1017,7 20
16.01.2021 12:00:00 11,0 7,0 9 5 WNW - 10
16.01.2021 11:00:00 10,0 6,0 4 2 NW - 10
16.01.2021 10:00:00 10,6 7,5 4 2 NW 1016,9 12
16.01.2021 09:00:00 7,0 5,0 2 1 NNE - 10
16.01.2021 08:00:00 6,0 4,0 8 4 NNE - 10
16.01.2021 07:00:00 6,0 4,5 5 3 NNW 1014,9 12
16.01.2021 06:00:00 6,0 5,0 4 2 N - 10
16.01.2021 05:00:00 7,0 5,0 4 2 SSW - 10
16.01.2021 04:00:00 8,0 5,8 11 6 NW 1014,9 10
16.01.2021 03:00:00 9,0 7,0 13 7 WNW - 10
16.01.2021 02:00:00 9,0 7,0 15 8 WNW - 10
16.01.2021 01:00:00 9,0 7,3 4 2 WNW 1015,5 10
16.01.2021 00:00:00 9,0 7,0 21 11 NW - 10
15.01.2021 23:00:00 9,0 7,0 11 6 WNW - 10
15.01.2021 22:00:00 9,4 7,0 26 14 WNW 1015,1 10
15.01.2021 21:00:00 10,0 7,0 21 11 NW - 10
15.01.2021 20:00:00 10,0 7,0 15 8 WNW - 10
15.01.2021 19:00:00 10,6 6,4 22 12 WNW 1014,5 20
15.01.2021 18:00:00 11,0 8,0 26 14 NW - 10
15.01.2021 17:00:00 12,0 8,0 31 17 NW - 10
15.01.2021 16:00:00 12,0 8,3 37 20 WNW 1013,1 20
15.01.2021 15:00:00 12,0 9,0 39 21 NW - 10
15.01.2021 14:00:00 14,0 8,0 42 23 WNW - 10
15.01.2021 13:00:00 13,4 8,2 37 20 WNW 1013,3 20
15.01.2021 12:00:00 13,0 8,0 35 19 WNW - 10
15.01.2021 11:00:00 12,0 8,0 39 21 WNW - 10
15.01.2021 10:00:00 13,2 9,3 34 18 NW 1013,8 10
15.01.2021 09:00:00 13,0 8,0 28 15 WNW - 10
15.01.2021 08:00:00 12,0 8,0 28 15 WNW - 10
15.01.2021 07:00:00 12,2 8,3 28 15 WNW 1013,2 12
15.01.2021 06:00:00 12,0 10,0 15 8 WNW - 10
15.01.2021 05:00:00 13,0 9,0 24 13 NW - 10

tt = temperature
td = dewpoint
ff = wind speed
dd = wind direction
ppp = reduced air pressure
vv = visibility

Next stations